FW1511 Weather Reports


Display with metric or nautical units.
time (UTC)temp
F
wind
direction
speed
MPH
gust
MPH
rain 1hr
in
rain 24hr
in
rain mn
in
humidity
%
barometer
mb
20260901064538 58 249 0.0 0.0 0.00 0.00 0.00 86 1008.1
20260901063036 59 249 0.0 0.0 0.00 0.00 0.00 85 1008.0
20260901061634 60 249 0.0 0.0 0.00 0.00 0.00 85 1008.1
20260901060032 61 249 0.0 0.0 0.00 0.00 0.00 84 1007.9
20260901054531 62 249 0.0 0.0 0.00 0.00 0.00 83 1008.0
20260901053031 63 249 0.0 0.0 0.00 0.00 0.00 81 1008.0
20260901051530 64 249 0.0 0.0 0.00 0.00 0.00 80 1008.1
20260901050030 65 272 0.0 1.0 0.00 0.00 0.00 78 1008.1
20260901044529 65 271 0.0 0.0 0.00 0.00 0.00 78 1008.1
20260901043029 66 273 0.0 0.0 0.00 0.00 0.00 76 1007.8
20260901041528 67 273 0.0 0.0 0.00 0.00 0.00 74 1007.7
20260901040029 68 162 0.0 0.0 0.00 0.00 0.00 72 1007.5
20260901034527 69 160 0.0 2.0 0.00 0.00 0.00 68 1007.3
20260901033042 69 212 0.0 0.0 0.00 0.00 0.00 62 1007.2
20260901031528 70 256 0.0 0.0 0.00 0.00 0.00 58 1006.9
20260901030027 72 256 0.0 0.0 0.00 0.00 0.00 54 1006.9
20260901024528 75 256 0.0 0.0 0.00 0.00 0.00 51 1006.7
20260901023029 77 257 0.0 3.0 0.00 0.00 0.00 48 1006.8
20260901021523 78 251 0.0 2.0 0.00 0.00 0.00 46 1006.8
20260901020021 80 250 1.0 3.0 0.00 0.00 0.00 44 1006.9
20260901014520 81 296 0.0 2.0 0.00 0.00 0.00 44 1006.9
20260901013020 82 311 0.0 4.0 0.00 0.00 0.00 44 1007.0
20260901011517 83 8 1.0 4.0 0.00 0.00 0.00 43 1007.0
20260901010016 82 332 0.0 4.0 0.00 0.00 0.00 45 1007.1
20260901004514 81 122 0.0 1.0 0.00 0.00 0.00 46 1007.2
20260901003014 80 281 1.0 4.0 0.00 0.00 0.00 46 1007.3
20260901001516 81 238 1.0 4.0 0.00 0.00 0.00 44 1007.5
20260901000011 80 302 1.0 5.0 0.00 0.00 0.00 44 1007.4
20260831234522 81 177 0.0 7.0 0.00 0.00 0.00 45 1007.4
20260831233007 82 27 0.0 6.0 0.00 0.00 0.00 45 1007.5
20260831231505 81 251 3.0 8.0 0.00 0.00 0.00 46 1007.7
20260831230002 82 18 0.0 8.0 0.00 0.00 0.00 44 1007.7
20260831224558 81 13 2.0 8.0 0.00 0.00 0.00 47 1007.8
20260831223056 80 23 3.0 8.0 0.00 0.00 0.00 47 1007.9
20260831221559 79 1 2.0 11.0 0.00 0.00 0.00 49 1008.1
20260831220059 79 321 1.0 6.0 0.00 0.00 0.00 49 1008.5
20260831214548 79 259 3.0 7.0 0.00 0.00 0.00 48 1008.7
20260831213047 78 262 4.0 10.0 0.00 0.00 0.00 48 1009.1
20260831211541 76 304 3.0 9.0 0.00 0.00 0.00 51 1009.0
20260831210039 77 297 4.0 9.0 0.00 0.00 0.00 51 1009.2
20260831204551 77 343 3.0 8.0 0.00 0.00 0.00 50 1009.4
20260831203053 76 280 1.0 8.0 0.00 0.00 0.00 53 1009.4
20260831201530 75 295 2.0 7.0 0.00 0.00 0.00 55 1009.8
20260831200036 74 30 3.0 5.0 0.00 0.00 0.00 54 1010.0
20260831194524 73 289 5.0 9.0 0.00 0.00 0.00 57 1010.4
20260831193025 72 21 4.0 13.0 0.00 0.00 0.00 58 1010.4
20260831191519 71 236 5.0 8.0 0.00 0.00 0.00 60 1010.7
20260831190017 70 310 2.0 9.0 0.00 0.00 0.00 62 1010.8
20260831184511 69 288 2.0 12.0 0.00 0.00 0.00 65 1011.0
20260831183008 68 65 2.0 10.0 0.00 0.00 0.00 66 1011.1
20260831181506 67 293 1.0 8.0 0.00 0.00 0.00 68 1011.3
20260831180003 66 268 4.0 9.0 0.00 0.00 0.00 70 1011.4
20260831174601 65 52 1.0 7.0 0.00 0.00 0.00 72 1011.5
20260831173055 65 283 2.0 7.0 0.00 0.00 0.00 75 1011.7
20260831171553 64 302 0.0 3.0 0.00 0.00 0.00 77 1011.9
20260831170052 63 289 1.0 4.0 0.00 0.00 0.00 76 1011.9
20260831164548 62 316 2.0 7.0 0.00 0.00 0.00 79 1011.9
20260831163046 61 300 2.0 5.0 0.00 0.00 0.00 82 1012.1
20260831161540 60 286 2.0 7.0 0.00 0.00 0.00 86 1012.2
20260831160053 58 249 0.0 7.0 0.00 0.00 0.00 90 1012.3
20260831154532 56 298 0.0 0.0 0.00 0.00 0.00 96 1012.4
20260831153056 54 293 0.0 2.0 0.00 0.00 0.00 98 1012.5
20260831151529 52 140 0.0 0.0 0.00 0.00 0.00 98 1012.6
20260831150033 51 140 0.0 0.0 0.00 0.00 0.00 98 1012.6
20260831144526 49 140 0.0 0.0 0.00 0.00 0.00 98 1012.6
20260831143024 48 140 0.0 0.0 0.00 0.00 0.00 97 1012.7
20260831141524 47 140 0.0 0.0 0.00 0.00 0.00 97 1012.7
20260831140022 47 140 0.0 0.0 0.00 0.00 0.00 96 1012.9
20260831134521 47 140 0.0 0.0 0.00 0.00 0.00 97 1012.9
20260831133018 47 140 0.0 0.0 0.00 0.00 0.00 97 1012.7
20260831131520 47 140 0.0 0.0 0.00 0.00 0.00 96 1012.9
20260831130016 48 140 0.0 0.0 0.00 0.00 0.00 96 1013.1
20260831124514 48 140 0.0 0.0 0.00 0.00 0.00 96 1013.1
20260831123017 48 140 0.0 0.0 0.00 0.00 0.00 96 1013.2
20260831121521 49 140 0.0 0.0 0.00 0.00 0.00 97 1013.4
20260831120025 48 140 0.0 0.0 0.00 0.00 0.00 96 1013.5
20260831114510 48 140 0.0 0.0 0.00 0.00 0.00 96 1013.5
20260831113007 48 140 0.0 0.0 0.00 0.00 0.00 96 1013.6
20260831111504 49 140 0.0 0.0 0.00 0.00 0.00 96 1013.8
20260831110003 49 140 0.0 0.0 0.00 0.00 0.00 96 1013.7
20260831104502 49 140 0.0 0.0 0.00 0.00 0.00 95 1013.9
20260831103059 50 140 0.0 0.0 0.00 0.00 0.00 96 1013.9
20260831101610 50 140 0.0 0.0 0.00 0.00 0.00 95 1014.2
20260831100054 50 140 0.0 0.0 0.00 0.00 0.00 95 1014.3
20260831094605 50 140 0.0 0.0 0.00 0.00 0.00 95 1014.5
20260831093051 51 140 0.0 0.0 0.00 0.00 0.00 94 1014.5
20260831091549 51 140 0.0 0.0 0.00 0.00 0.00 94 1014.5
20260831090047 52 140 0.0 0.0 0.00 0.00 0.00 95 1014.6
20260831084548 52 140 0.0 0.0 0.00 0.00 0.00 94 1014.6
20260831083051 52 140 0.0 0.0 0.00 0.00 0.00 93 1014.8
20260831081546 53 140 0.0 1.0 0.00 0.00 0.00 94 1015.1
20260831080039 53 114 0.0 0.0 0.00 0.00 0.00 92 1015.2
20260831074537 53 114 0.0 0.0 0.00 0.00 0.00 93 1015.1
20260831073035 53 114 0.0 0.0 0.00 0.00 0.00 92 1015.1
20260831071534 54 114 0.0 0.0 0.00 0.00 0.00 91 1015.3
20260831070038 54 114 0.0 0.0 0.00 0.00 0.00 91 1015.5